User: anonymous   Login
Location: Unspecified
(0.0000°N, 0.0000°E)
Time: 15:16:39
(UTC+00:00)
Language:

Uosat F - Orbit

View from above orbital plane
View from above orbital plane
View from above satellite
View from above satellite

Ground track
Ground track

The orbit data is extracted from the following two-line orbital elements,

1 21575U 91050B   19078.56101317 +.00000012 +00000-0 +18186-4 0  9995
2 21575 098.6973 118.3953 0007225 184.0689 176.0442 14.40875547453298
Epoch (UTC): 19 March 2019 13:27:51
Eccentricity: 0.0007225
inclination: 98.6973°
perigee height: 750 km
apogee height: 761 km
right ascension of ascending node: 118.3953°
argument of perigee: 184.0689°
revolutions per day: 14.40875547
mean anomaly at epoch: 176.0442°
orbit number at epoch: 45329

The dashed part of the orbit path shows where the satellite is in the earth's shadow,  

DLR